Home > Weather > George Town > Past weeks

Flag for Cayman Islands Weather for the Past 2 Weeks in George Town, Cayman Islands

Now
73 °F

Passing clouds.


Feels Like: 73 °F
Forecast: 74 / 76 °F
Wind: 10 mph from Northeast

Location: Owen Roberts Airportgrand Cayman

Current Time: Feb 8, 2016 at 7:47:22 AM

Latest Report: Feb 8, 2016 at 6:55 AM


Visibility: N/A

Pressure: 30.04 "Hg

Humidity: 83%

Dew point: 68 °F

Location of George TownLocation

Historic Weather in George Town — Graph

°F

George Town Temperature Yesterday

Maximum temperature yesterday: 81 °F (at 10:00 AM)
Minimum temperature yesterday: 72 °F (at 6:00 AM)
Average temperature yesterday: 77 °F

High & Low Weather Summary for the Past Weeks

 TemperatureHumidityPressure
High86 °F (Jan 27, 10:55 AM)100% (Jan 30, 11:52 AM)30.15 "Hg (Jan 30, 11:52 AM)
Low72 °F (Jan 25, 7:00 AM)54% (Jan 24, 3:00 PM)29.89 "Hg (Jan 27, 4:00 PM)
Average80 °F79%30.01 "Hg
* Reported Jan 24 5:52 AM — Feb 8 5:55 AM, George Town, Weather by CustomWeather, © 2016

Note: Actual official high and low records may vary slightly from our data, if they occured in-between our weather recording intervals... More about our weather records

Advertising

George Town Weather History for the Previous 24 Hours

 ConditionsComfort  
Time TempWeatherWind HumidityBarometerVisibility
5:55 AM
Mon, Feb 8
73 °FPassing clouds.9 mph74%30.04 "HgN/A
12:00 AM75 °FPassing clouds.10 mph78%30.07 "HgN/A
11:00 PM
Sun, Feb 7
75 °FPassing clouds.10 mph78%30.07 "HgN/A
10:00 PM75 °FPassing clouds.10 mph83%30.07 "HgN/A
9:00 PM75 °FSprinkles. Partly cloudy.10 mph83%30.04 "HgN/A
8:00 PM75 °FPartly cloudy.10 mph83%30.04 "HgN/A
7:00 PM75 °FPartly cloudy.10 mph78%30.01 "HgN/A
6:00 PM79 °FBroken clouds.8 mph65%30.01 "HgN/A
5:00 PM79 °FBroken clouds.8 mph65%30.01 "HgN/A
4:00 PM79 °FOvercast.9 mph61%29.98 "HgN/A
3:00 PM79 °FOvercast.8 mph65%30.01 "HgN/A
2:00 PM77 °FScattered showers. Partly sunny.12 mph79%30.01 "HgN/A
1:00 PM79 °FScattered showers. Partly sunny.9 mph79%30.01 "HgN/A
12:00 PM79 °FScattered showers. Partly sunny.9 mph79%30.04 "HgN/A
11:00 AM77 °FScattered showers. Partly sunny.9 mph89%30.07 "HgN/A
10:00 AM81 °FPartly sunny.2 mph79%30.04 "HgN/A
9:00 AM79 °FPartly sunny.No wind79%30.04 "HgN/A
8:00 AM75 °FPartly sunny.No wind83%30.01 "HgN/A
7:00 AM73 °FPartly sunny.No wind94%30.01 "HgN/A
Weather by CustomWeather, © 2016

See weather overviewHow to use our weather pages